CST,Max TemperatureF,Mean TemperatureF,Min TemperatureF,Max Dew PointF,MeanDew PointF,Min DewpointF,Max Humidity, Mean Humidity, Min Humidity, Max Sea Level PressureIn, Mean Sea Level PressureIn, Min Sea Level PressureIn, Max VisibilityMiles, Mean VisibilityMiles, Min VisibilityMiles, Max Wind SpeedMPH, Mean Wind SpeedMPH, Max Gust SpeedMPH,PrecipitationIn, CloudCover, Events, WindDirDegrees
2013-1-1,14,7,0,5,-1,-6,86,77,67,30.34,30.26,30.18,10,10,10,13,7,,0.00,0,,285
2013-1-2,25,14,3,43,17,1,92,82,71,30.16,30.09,30.01,10,9,6,13,9,,T,4,Snow,229
2013-1-3,27,17,7,23,10,3,92,84,76,30.33,30.25,30.09,10,9,7,20,15,28,T,4,,293
2013-1-4,32,22,12,25,19,9,93,82,69,30.28,30.22,30.16,10,10,10,15,11,,0.00,0,,235
2013-1-5,37,26,14,32,24,16,100,91,81,30.16,30.03,29.94,10,9,5,23,13,24,0.00,3,,221
2013-1-6,22,16,10,18,12,10,100,87,73,30.33,30.20,30.01,10,9,6,28,12,33,T,2,,285
2013-1-7,38,27,15,29,22,12,88,76,64,30.27,30.13,30.04,10,10,9,24,11,28,0.00,0,,185
2013-1-8,40,32,24,32,28,22,92,81,70,30.06,30.01,29.93,10,10,9,17,10,23,0.00,1,,177
2013-1-9,39,33,27,33,29,26,100,88,76,30.47,30.33,30.06,10,10,8,23,8,30,0.00,0,,263
2013-1-10,37,32,26,36,30,24,100,85,70,30.44,30.06,29.75,10,6,0,18,10,28,0.08,5,Fog-Rain,115
2013-1-11,51,43,35,47,43,36,100,93,86,29.75,29.63,29.54,10,3,0,24,11,32,0.04,4,Fog-Rain,178
2013-1-12,51,35,18,44,22,9,92,78,63,30.09,29.92,29.58,10,10,8,31,18,40,T,5,Snow,287
2013-1-13,18,14,10,8,6,3,84,76,67,30.33,30.17,30.02,10,10,6,24,14,30,T,5,,300
2013-1-14,28,17,5,13,8,2,88,67,46,30.51,30.44,30.34,10,10,10,12,4,16,0.00,0,,258
2013-1-15,32,21,10,16,11,8,92,66,39,30.43,30.31,30.11,10,10,9,14,6,18,0.00,0,,185
2013-1-16,42,29,15,36,24,9,100,80,59,30.15,29.98,29.85,10,10,10,22,12,28,T,5,,261
2013-1-17,31,23,15,23,14,7,92,67,42,30.45,30.38,30.20,10,10,10,18,8,24,0.00,1,,309
2013-1-18,53,38,22,32,27,19,92,68,44,30.39,30.06,29.88,10,10,10,33,17,44,0.00,0,,200
2013-1-19,51,34,16,34,27,6,82,65,48,30.20,29.91,29.79,10,10,10,39,17,48,0.00,1,,261
2013-1-20,16,12,8,9,5,0,83,71,58,30.41,30.33,30.21,10,8,1,28,13,37,T,6,Snow,304
2013-1-21,10,4,-2,3,-5,-11,80,68,55,30.40,30.35,30.25,10,10,10,29,17,35,T,0,,294
2013-1-22,13,5,-4,1,-4,-9,87,70,53,30.47,30.41,30.36,10,10,10,16,8,20,0.00,3,,274
2013-1-23,29,18,6,13,5,-6,69,60,50,30.51,30.28,30.16,10,10,8,30,15,36,T,4,,262
2013-1-24,20,12,3,8,-4,-8,68,52,36,30.67,30.52,30.28,10,10,10,18,11,22,0.00,1,,88
2013-1-25,33,22,10,19,11,3,68,57,45,30.31,30.14,30.05,10,10,9,30,14,35,0.00,3,,272
2013-1-26,30,17,3,14,6,0,87,63,39,30.42,30.34,30.27,10,10,10,16,8,22,0.00,2,,135
2013-1-27,39,34,28,39,28,14,100,77,53,30.25,30.00,29.78,10,4,1,20,13,28,0.27,7,Rain,144
2013-1-28,47,40,32,47,38,32,100,100,100,29.94,29.82,29.65,2,0,0,16,8,22,0.04,8,Fog-Rain,140
2013-1-29,58,46,33,56,44,32,100,97,93,29.62,29.56,29.49,10,5,0,23,12,29,0.51,7,Fog-Rain-Thunderstorm,281
2013-1-30,33,23,12,32,23,8,100,92,84,29.81,29.52,29.36,10,2,0,35,21,41,0.01,7,Fog-Snow,331
2013-1-31,16,8,-1,9,-1,-8,88,80,72,30.35,30.06,29.77,10,7,0,32,21,38,T,5,Snow,300